Regional Weather Roundup
Issued by NWS Grand Forks, ND

Home | Current Version | Previous Version | Graphics & Text | Print | Product List | Glossary On
Versions: 1 2 3 4 5 6 7 8 9 10 11 12 13 14 15 16 17 18 19 20 21 22 23 24 25 26 27 28 29 30 31 32 33 34 35 36 37 38 39 40 41 42 43 44 45 46 47 48 49 50
000
ASUS43 KFGF 260231
RWRFGF
PRAIRIE TO PINES  WEATHER ROUNDUP
NATIONAL WEATHER SERVICE EASTERN NORTH DAKOTA/GRAND FORKS ND
900 PM CDT MON SEP 25 2017

 **SATELLITE DATA USED TO AUGMENT SKY COVER AT AUTOMATED STATIONS**
 *****  WEATHER ACROSS EASTERN NORTH DAKOTA  *****

CITY           SKY/WX    TMP DP  RH WIND       PRES   REMARKS
GRAND FORKS    CLOUDY    52  48  86 N8        30.11F
GRAND FRKS AFB CLOUDY    50  46  85 N6        30.12S
DEVILS LAKE    FAIR      46  42  86 NE7       30.15R
FARGO          CLOUDY    52  49  89 N9        30.07F
WAHPETON ARPT  CLOUDY    50  46  87 N7        30.06S
$$

 ***** WEATHER ACROSS CENTRAL AND WESTERN NORTH DAKOTA  *****

CITY           SKY/WX    TMP DP  RH WIND       PRES   REMARKS
BISMARCK       CLOUDY    49  44  83 NE5       30.13S
MINOT          CLOUDY    51  44  77 E5        30.13S
JAMESTOWN      CLOUDY    49  43  80 N6        30.11S
MINOT AFB      CLOUDY    51  43  73 CALM      30.12S
GARRISON         N/A     49  44  83 CALM      30.13R
WILLISTON      CLOUDY    48  46  93 NE6       30.12F
DICKINSON      CLOUDY    45  44  97 E5        30.10R
HETTINGER      CLOUDY    45  40  82 E6        30.12R
$$

 *****  OTHER AIRPORT OBSERVATIONS IN OUR AREA  *****

CITY           SKY/WX    TMP DP  RH WIND       PRES   REMARKS
WALHALLA       FAIR     N/A N/A N/A N7        30.16R
GRAFTON AIRPOR   N/A     50  46  87 NW9       30.15S
VALLEY CITY AR CLOUDY    48  48 100 N9        30.11F
CANDO          MOCLDY    45  46 100 NE5       30.16F
CAVALIER APRT  CLOUDY    50  46  87 NW6       30.15R
GWINNER        CLOUDY    50  46  87 N7        30.09R
SHEYENNE NWR     N/A     50  48  93 N5        29.95
ROLLA          CLOUDY    46  45  93 E6        30.16S
 ***** THE ABOVE OBSERVATIONS ARE NON NWS ARE NOT QUALITY
       CONTROLLED AND MAY MIS-REPORT RAIN FOR SNOW...
$$

  *****  WEATHER ACROSS NORTHERN MINNESOTA  *****

CITY           SKY/WX    TMP DP  RH WIND       PRES   REMARKS
FLAG ISLAND    CLOUDY    52  48  87 NE9       30.11F
WARROAD        MOCLDY    50  46  87 N8        30.12F
ROSEAU         FAIR      52  46  82 N6        30.11F
HALLOCK          N/A     52  48  87 CALM      30.13R
THF RVR FALLS  MOCLDY    51  47  86 N8        30.10F
BAUDETTE       MOCLDY    51  48  89 N6        30.10F
WASKISH        MOCLDY    52  48  87 N5        30.10R
CROOKSTON      MOCLDY    52  48  87 N8        30.11S
STEPHEN NDAWN    N/A     52  48  87 N6          N/A
GREENBUSH NDAW   N/A     52  46  82 N3          N/A
$$
  *****  WEATHER ACROSS CENTRAL AND WEST MINNESOTA  *****

CITY           SKY/WX    TMP DP  RH WIND       PRES   REMARKS
FOSSTON        MOCLDY    50  48  93 NE8       30.08F
BEMIDJI        MOCLDY    50  48  91 NE7       30.07S
PARK RAPIDS    LGT RAIN  54  50  86 N9        30.05F
ELBOW LAKE     CLOUDY    53  51  94 N3        30.04F
WADENA         LGT RAIN  52  52 100 N8        30.04F
DETROIT LAKES  MOCLDY    52  50  93 NE8       30.06F
MOORHEAD       DRIZZLE   52  48  87 N7        30.08S
FERGUS FALLS   CLOUDY    52  52 100 N8        30.05F
MORRIS MN      NOT AVBL
STAPLES        CLOUDY    54  52  94 N8        30.04S
$$
  *****  WEATHER ELSEWHERE ACROSS MINNESOTA  *****

CITY           SKY/WX    TMP DP  RH WIND       PRES   REMARKS
DULUTH         CLOUDY    56  55  97 N8        30.00F
INTRNTL FALLS  CLOUDY    53  47  79 NE8       30.09R
ELY            CLOUDY    54  52  94 N3        30.04S
CLOQUET        CLOUDY    55  52  88 N7        30.01F
WHEATON        DRIZZLE   50  46  87 NW7       30.07R
BRAINERD       LGT RAIN  55  52  89 N9        30.03F
HIBBING        CLOUDY    53  50  89 N7        30.04S
ALEXANDRIA     CLOUDY    55  51  86 NE7       30.05R
SAINT CLOUD    LGT RAIN  55  55 100 N5        30.01R
MINNEAPOLIS    LGT RAIN  59  58  96 N6        29.99R
$$

  *****  WEATHER ACROSS SOUTH DAKOTA  *****

CITY           SKY/WX    TMP DP  RH WIND       PRES   REMARKS
SIOUX FALLS    CLOUDY    54  53  97 N10       30.02F
BROOKINGS      LGT RAIN  50  48  93 N8        30.05R FOG
WATERTOWN      LGT RAIN  48  48 100 N9        30.05R
HURON          LGT RAIN  50  49  96 N9        30.08R FOG
SISSETON         N/A     51  48  89 N10       30.06R
ABERDEEN       CLOUDY    50  46  86 N7        30.09R
MITCHELL       LGT RAIN  51  50  96 N8        30.07R FOG
PIERRE         CLOUDY    51  45  79 NE5       30.10R
MOBRIDGE       CLOUDY    50  44  80 NE6       30.09R
RAPID CITY     CLOUDY    50  43  76 E8        30.10R
$$

  *****  SOME WEATHER IN NEARBY STATES *****

CITY           SKY/WX    TMP DP  RH WIND       PRES   REMARKS
GLASGOW MT     CLOUDY    50  38  63 E15       30.07R
GREAT FALLS MT CLOUDY    56  34  43 SE3       30.01S
CHEYENNE WY    CLOUDY    39  37  92 CALM      30.13R
SCOTTSBLUFF NE FAIR      47  42  83 SE6       30.10R
OMAHA NE       LGT RAIN  61  58  90 N8        29.96R FOG
DES MOINES IA  CLOUDY    68  67  96 E7        29.92F
DAVENPORT IA   FAIR      74  64  71 S6        29.92S
CHICAGO IL     FAIR      79  56  45 SE8       29.94R
EAU CLAIRE WI  CLOUDY    63  61  93 N5        29.96S
LA CROSSE WI   FAIR      71  66  84 W7        29.95R
$$

  *****  SOME NATIONAL WEATHER *****

CITY           SKY/WX    TMP DP  RH WIND       PRES   REMARKS
LA GUARDIA NY  FAIR      73  65  75 VRB5      30.05S
RALEIGH NC     MOCLDY    73  68  84 NE8       29.95S
ATLANTA GA     FAIR      76  61  59 E6        29.97R
NEW ORLEANS LA FAIR      79  72  79 E3        29.87R
OKLAHOMA CITY  LGT RAIN  69  68  96 SW9       29.90S
ALBUQUERQUE NM FAIR      69  13  11 N7        29.95R
SALT LAKE CITY FAIR      53  38  56 N7        30.10S
LOS ANGELES CA FAIR      75  45  34 W14       29.77S
BOISE ID       FAIR      62  36  37 W3        30.06S
SEATTLE WA     CLOUDY    63  55  75 CALM      30.12R
$$

*** WEATHER ACROSS MANITOBA...SASKATCHEWAN AND ONTARIO ***
                ***ONTARIO***

CITY           SKY/WX    TMP DP  RH WIND       PRES   REMARKS
GERALDTON      LGT RAIN  50  46  87 NE12G17   30.07F
THUNDER BAY    CLOUDY    55  48  76 N6        30.03F
SIOUX LOOKOUT  DRIZZLE   48  48 100 N3        30.13F FOG
TORONTO        PTCLDY    75  66  73 S3        30.01S
BIG TROUT LK   CLOUDY    41  41 100 N3        30.21R
PICKLE LAKE    LGT RAIN  46  46 100 NE6       30.16R FOG
DRYDEN         CLOUDY    48  48 100 NE6       30.12S
KENORA         CLOUDY    50  46  87 N5        30.14S
$$
                *** MANITOBA***

CITY           SKY/WX    TMP DP  RH WIND       PRES   REMARKS
BRANDON        MOCLDY    48  43  81 E7        30.16S
DAUPHIN        CLEAR     41  39  93 S6        30.16S
ISLAND LAKE    NOT AVBL
PILOT MOUND      N/A     45  39  81 NE3         N/A
THE PAS        PTCLDY    45  41  87 SE10      30.09F
THOMPSON       PTCLDY    41  34  75 VRB2      30.16S
WINNIPEG       MOCLDY    50  45  81 N7        30.15F
LYNN LAKE      CLOUDY    46  41  81 S9        30.06F
CHURCHILL      CLEAR     37  30  75 S9        30.18S
GILLAM         PTCLDY    32  28  86 SW2       30.21S
$$
                ***SASKATCHEWAN***

CITY           SKY/WX    TMP DP  RH WIND       PRES   REMARKS
ESTEVAN        CLOUDY    48  45  87 SE3       30.13S
KINDERSLEY     MOCLDY    55  37  50 NE2       29.96S
LLOYDMINSTER   MOCLDY    57  45  62 S6        29.91R
PRINCE ALBERT  CLOUDY    55  37  50 S8        30.01S
REGINA         MOCLDY    50  36  57 SE12      30.10R
YORKTON        CLOUDY    52  39  62 SE7       30.13R
N. BATTLEFORD  CLEAR     48  34  57 SE8       29.97S
LA RONGE       CLOUDY    57  45  62 SE7       29.95S
SASKATOON      MOCLDY    57  36  44 SE13      30.00S
SWIFT CURRENT  CLEAR     50  28  43 S12       29.98S
$$
NOTE: THESE ARE AUTOMATED STATIONS WITH LIMITED QUALITY CONTROL
      "FAIR" INDICATES FEW OR NO CLOUDS BELOW 12,000 FEET WITH NO
      SIGNIFICANT WEATHER AND/OR OBSTRUCTIONS TO VISIBILITY.
      SKY/WX - SKY CONDITION AND SIGNIFICANT WEATHER.
      TMP - AIR TEMPERATURE.    DP   - DEWPOINT TEMPERATURE.
      RH  - RELATIVE HUMIDITY.  PRES - PRESSURE.
      HX  - HEAT INDEX.         WCI  - WIND CHILL INDEX.
$




USA.gov is the U.S. government's official web portal to all federal, state and local government web resources and services.